Findlay, OH

10:14 AM EDT on May 23, 2017 (GMT -0400)
Findlay

Weather History for KFDY - October, 2011

Change the Weather History Date:

Saturday, October 1, 2011

  Actual Average Record
Temperature  
Mean Temperature 48 °F -  
Max Temperature 55 °F 69 °F 87 °F (1952)
Min Temperature 41 °F 48 °F 33 °F (2003)
Degree Days  
Heating Degree Days 18    
Moisture  
Dew Point 39 °F    
Average Humidity 81    
Maximum Humidity 100    
Minimum Humidity 52    
Precipitation  
Precipitation 0.04 in - - ()
Sea Level Pressure  
Sea Level Pressure 30.05 in    
Wind  
Wind Speed 13 mph (NNW)    
Max Wind Speed 18 mph    
Max Gust Speed 25 mph    
Visibility 9 miles    
Events Rain    
Averages and records for this station are not official NWS values.
T = Trace of Precipitation, MM = Missing Value Source: NWS Daily Summary

Daily Weather History Graph

Daily Weather History Graph

Search for Another Location

Airport or City:

Trip Planner

Search our weather history database for the weather conditions in past years. The results will help you decide how hot, cold, wet, or windy it might be!

Date:

Astronomy

Oct. 01, 2011 Rise Set
Actual Time 7:31 AM EDT 7:17 PM EDT
Civil Twilight 7:03 AM EDT 7:44 PM EDT
Nautical Twilight 6:31 AM EDT 8:16 PM EDT
Astronomical Twilight 5:59 AM EDT 8:48 PM EDT
Moon 12:38 PM EDT (10/1) 10:10 PM EDT (10/1)
Length of Visible Light 12h 40m
Length of Day
11h 46m
Waxing Crescent, 24% of the Moon is Illuminated
Oct 1
Waxing Crescent
Oct 3
First Quarter
Oct 11
Full
Oct 19
Last Quarter
Oct 26
New

Hourly Weather History & Observations

Time (EDT) Temp. Windchill Dew Point Humidity Pressure Visibility Wind Dir Wind Speed Gust Speed Precip Events Conditions
12:32 AM 41.0 °F 33.5 °F 37.4 °F 87% 29.96 in 10.0 mi NW 13.8 mph - 0.00 in Rain Light Rain
1:53 AM 41.0 °F 34.3 °F 37.9 °F 89% 29.95 in 10.0 mi NW 11.5 mph - 0.00 in   Overcast
2:53 AM 41.0 °F 34.3 °F 37.9 °F 89% 29.95 in 10.0 mi NW 11.5 mph - 0.00 in   Overcast
3:53 AM 41.0 °F 33.5 °F 37.9 °F 89% 29.95 in 10.0 mi NNW 13.8 mph 25.3 mph 0.00 in Rain Light Rain
4:19 AM 41.0 °F 33.9 °F 37.4 °F 87% 29.96 in 8.0 mi NW 12.7 mph 23.0 mph 0.01 in Rain Rain
4:53 AM 41.0 °F 33.5 °F 39.0 °F 93% 29.96 in 9.0 mi NW 13.8 mph 23.0 mph 0.02 in Rain Light Rain
5:46 AM 41.0 °F 33.5 °F 39.2 °F 93% 29.97 in 8.0 mi NW 13.8 mph 23.0 mph 0.02 in Rain Light Rain
5:53 AM 42.1 °F 34.9 °F 39.0 °F 89% 29.97 in 10.0 mi NNW 13.8 mph 23.0 mph 0.02 in Rain Light Rain
6:27 AM 42.8 °F 34.8 °F 39.2 °F 87% 29.98 in 9.0 mi NW 17.3 mph 24.2 mph 0.00 in Rain Light Rain
6:53 AM 42.1 °F 34.5 °F 39.0 °F 89% 29.99 in 6.0 mi NW 15.0 mph 21.9 mph 0.00 in Rain Light Rain
8:53 AM 43.0 °F 35.7 °F 41.0 °F 93% 30.03 in 9.0 mi NNW 15.0 mph 24.2 mph N/A   Overcast
9:20 AM 42.8 °F 34.5 °F 41.0 °F 93% 30.04 in 2.5 mi NNW 18.4 mph 23.0 mph N/A   Overcast
9:34 AM 42.8 °F 35.4 °F 42.8 °F 100% 30.05 in 2.0 mi NNW 15.0 mph - 0.00 in Rain Light Rain
9:49 AM 44.6 °F 36.9 °F 42.8 °F 93% 30.06 in 3.0 mi NNW 18.4 mph 23.0 mph 0.00 in Rain Light Rain
10:53 AM 45.0 °F 38.5 °F 42.1 °F 90% 30.09 in 6.0 mi North 13.8 mph 24.2 mph 0.00 in   Overcast
11:53 AM 46.0 °F 41.0 °F 41.0 °F 83% 30.10 in 10.0 mi NNW 10.4 mph - N/A   Overcast
12:53 PM 46.9 °F - 39.9 °F 77% 30.11 in 10.0 mi North 15.0 mph 25.3 mph N/A   Overcast
1:53 PM 48.0 °F - 39.9 °F 74% 30.12 in 10.0 mi North 10.4 mph - N/A   Overcast
2:53 PM 48.9 °F - 39.9 °F 71% 30.12 in 10.0 mi NNW 16.1 mph 20.7 mph N/A   Overcast
3:00 PM 48.2 °F - 39.2 °F 71% 30.12 in 10.0 mi North 11.5 mph 20.7 mph N/A   Overcast
4:53 PM 54.0 °F - 37.9 °F 55% 30.11 in 10.0 mi NNW 18.4 mph 24.2 mph N/A   Mostly Cloudy
5:53 PM 53.1 °F - 36.0 °F 52% 30.12 in 10.0 mi NNW 16.1 mph 20.7 mph N/A   Scattered Clouds
6:53 PM 51.1 °F - 35.1 °F 54% 30.13 in 10.0 mi NNW 10.4 mph - N/A   Unknown
7:53 PM 48.0 °F - 37.0 °F 66% 30.14 in 10.0 mi NNW 10.4 mph - N/A   Mostly Cloudy
9:53 PM 44.1 °F 38.6 °F 35.1 °F 71% 30.17 in 10.0 mi North 10.4 mph - N/A   Clear
10:53 PM 42.1 °F 39.2 °F 35.1 °F 76% 30.16 in 10.0 mi NNW 4.6 mph - N/A   Clear
11:53 PM 41.0 °F 38.0 °F 34.0 °F 76% 30.17 in 10.0 mi NNW 4.6 mph - N/A   Clear